TimeEST,TemperatureF,Dew PointF,Humidity,Sea Level PressureIn,VisibilityMPH,Wind Direction,Wind SpeedMPH,Gust SpeedMPH,PrecipitationIn,Events,Conditions,WindDirDegrees,DateUTC
12:15 AM,35.6,32.0,87,-9999,10.0,Calm,Calm,-,N/A,,Mostly Cloudy,0,2012-12-12 05:15:00
12:35 AM,34.9,31.6,88,-9999,10.0,Calm,Calm,-,N/A,,Clear,0,2012-12-12 05:35:00
12:55 AM,34.7,31.8,89,-9999,10.0,Calm,Calm,-,N/A,,Clear,0,2012-12-12 05:55:00
1:15 AM,34.5,32.0,90,-9999,10.0,Calm,Calm,-,N/A,,Clear,0,2012-12-12 06:15:00
1:35 AM,34.9,32.0,89,-9999,10.0,Calm,Calm,-,N/A,,Clear,0,2012-12-12 06:35:00
1:55 AM,34.7,32.2,91,-9999,7.0,Calm,Calm,-,N/A,,Clear,0,2012-12-12 06:55:00
2:15 AM,34.7,32.2,91,-9999,10.0,Calm,Calm,-,N/A,,Clear,0,2012-12-12 07:15:00
2:35 AM,34.7,32.2,91,-9999,10.0,Calm,Calm,-,N/A,,Clear,0,2012-12-12 07:35:00
2:55 AM,34.2,32.2,92,-9999,7.0,Calm,Calm,-,N/A,,Clear,0,2012-12-12 07:55:00
3:15 AM,33.8,32.2,94,-9999,7.0,Calm,Calm,-,N/A,,Clear,0,2012-12-12 08:15:00
3:35 AM,33.4,32.2,95,-9999,7.0,Calm,Calm,-,N/A,,Clear,0,2012-12-12 08:35:00
3:55 AM,33.1,32.0,96,-9999,7.0,Calm,Calm,-,N/A,,Clear,0,2012-12-12 08:55:00
4:15 AM,32.9,32.0,96,-9999,7.0,Calm,Calm,-,N/A,,Scattered Clouds,0,2012-12-12 09:15:00
4:35 AM,32.9,32.0,96,-9999,7.0,Calm,Calm,-,N/A,,Scattered Clouds,0,2012-12-12 09:35:00
4:55 AM,32.5,32.0,98,-9999,5.0,Calm,Calm,-,N/A,,Scattered Clouds,0,2012-12-12 09:55:00
5:15 AM,32.9,32.0,96,-9999,7.0,Calm,Calm,-,N/A,,Mostly Cloudy,0,2012-12-12 10:15:00
5:35 AM,33.1,32.2,96,-9999,7.0,Calm,Calm,-,N/A,,Overcast,0,2012-12-12 10:35:00
5:55 AM,33.3,32.4,96,-9999,7.0,Calm,Calm,-,N/A,,Overcast,0,2012-12-12 10:55:00
6:15 AM,33.8,32.7,96,-9999,7.0,Calm,Calm,-,N/A,,Overcast,0,2012-12-12 11:15:00
6:35 AM,34.0,32.9,96,-9999,7.0,Calm,Calm,-,N/A,,Overcast,0,2012-12-12 11:35:00
6:55 AM,34.2,33.1,96,-9999,7.0,Calm,Calm,-,N/A,,Overcast,0,2012-12-12 11:55:00
7:15 AM,34.7,33.4,95,-9999,7.0,Calm,Calm,-,N/A,,Overcast,0,2012-12-12 12:15:00
7:35 AM,34.7,33.3,94,-9999,7.0,Calm,Calm,-,N/A,,Overcast,0,2012-12-12 12:35:00
7:55 AM,34.7,33.3,94,-9999,7.0,Calm,Calm,-,N/A,,Overcast,0,2012-12-12 12:55:00
8:15 AM,34.9,33.4,94,-9999,7.0,WSW,3.5,-,N/A,,Overcast,250,2012-12-12 13:15:00
8:35 AM,35.1,33.8,95,-9999,7.0,West,3.5,-,N/A,,Overcast,260,2012-12-12 13:35:00
8:55 AM,35.2,33.8,94,-9999,7.0,Calm,Calm,-,N/A,,Overcast,0,2012-12-12 13:55:00
9:15 AM,35.6,34.0,94,-9999,7.0,Calm,Calm,-,N/A,,Overcast,0,2012-12-12 14:15:00
9:35 AM,35.8,33.8,92,-9999,7.0,Calm,Calm,-,N/A,,Overcast,0,2012-12-12 14:35:00
9:55 AM,35.8,33.6,92,-9999,7.0,Calm,Calm,-,N/A,,Overcast,0,2012-12-12 14:55:00
10:15 AM,36.0,33.6,91,-9999,10.0,Calm,Calm,-,N/A,,Overcast,0,2012-12-12 15:15:00
10:35 AM,36.3,33.6,90,-9999,10.0,Calm,Calm,-,N/A,,Overcast,0,2012-12-12 15:35:00
10:55 AM,36.7,33.6,89,-9999,10.0,Calm,Calm,-,N/A,,Overcast,0,2012-12-12 15:55:00
11:15 AM,37.4,33.3,85,-9999,10.0,Calm,Calm,-,N/A,,Overcast,0,2012-12-12 16:15:00
11:35 AM,37.6,32.9,83,-9999,10.0,Calm,Calm,-,N/A,,Mostly Cloudy,0,2012-12-12 16:35:00
11:55 AM,38.3,33.1,81,-9999,10.0,Calm,Calm,-,N/A,,Mostly Cloudy,0,2012-12-12 16:55:00
12:15 PM,38.5,32.9,80,-9999,10.0,Calm,Calm,-,N/A,,Scattered Clouds,0,2012-12-12 17:15:00
12:35 PM,39.4,33.3,79,-9999,10.0,Calm,Calm,-,N/A,,Clear,0,2012-12-12 17:35:00
12:55 PM,39.9,33.3,77,-9999,10.0,Calm,Calm,-,N/A,,Clear,0,2012-12-12 17:55:00
1:15 PM,40.3,33.8,78,-9999,10.0,Calm,Calm,-,N/A,,Clear,0,2012-12-12 18:15:00
1:35 PM,40.3,33.8,78,-9999,10.0,Calm,Calm,-,N/A,,Clear,0,2012-12-12 18:35:00
1:55 PM,40.3,33.8,78,-9999,10.0,Calm,Calm,-,N/A,,Clear,0,2012-12-12 18:55:00
2:15 PM,40.6,33.8,77,-9999,10.0,Calm,Calm,-,N/A,,Clear,0,2012-12-12 19:15:00
2:35 PM,41.0,34.5,78,-9999,10.0,Calm,Calm,-,N/A,,Clear,0,2012-12-12 19:35:00
2:55 PM,41.9,34.9,76,-9999,10.0,Calm,Calm,-,N/A,,Clear,0,2012-12-12 19:55:00
3:15 PM,42.6,35.2,75,-9999,10.0,Calm,Calm,-,N/A,,Clear,0,2012-12-12 20:15:00
3:35 PM,43.0,34.7,73,-9999,10.0,Calm,Calm,-,N/A,,Clear,0,2012-12-12 20:35:00
3:55 PM,43.2,34.0,70,-9999,10.0,Calm,Calm,-,N/A,,Clear,0,2012-12-12 20:55:00
4:15 PM,43.5,34.0,69,-9999,10.0,Calm,Calm,-,N/A,,Clear,0,2012-12-12 21:15:00
4:35 PM,43.9,34.7,70,-9999,10.0,Calm,Calm,-,N/A,,Clear,0,2012-12-12 21:35:00
4:55 PM,42.4,34.5,74,-9999,10.0,Calm,Calm,-,N/A,,Clear,0,2012-12-12 21:55:00
5:15 PM,39.4,34.7,83,-9999,10.0,Calm,Calm,-,N/A,,Clear,0,2012-12-12 22:15:00
5:35 PM,38.1,34.7,87,-9999,10.0,Calm,Calm,-,N/A,,Clear,0,2012-12-12 22:35:00
5:55 PM,37.6,35.2,91,-9999,10.0,Calm,Calm,-,N/A,,Clear,0,2012-12-12 22:55:00
6:15 PM,37.6,36.1,95,-9999,10.0,Calm,Calm,-,N/A,,Clear,0,2012-12-12 23:15:00
6:35 PM,36.0,34.3,94,-9999,10.0,Calm,Calm,-,N/A,,Scattered Clouds,0,2012-12-12 23:35:00
6:55 PM,35.4,34.3,96,-9999,7.0,Calm,Calm,-,N/A,,Scattered Clouds,0,2012-12-12 23:55:00
7:15 PM,34.2,33.1,96,-9999,7.0,Calm,Calm,-,N/A,,Mostly Cloudy,0,2012-12-13 00:15:00
7:35 PM,35.6,34.7,97,-9999,10.0,Calm,Calm,-,N/A,,Overcast,0,2012-12-13 00:35:00
7:55 PM,34.9,34.0,97,-9999,7.0,Calm,Calm,-,N/A,,Overcast,0,2012-12-13 00:55:00
8:15 PM,34.2,33.3,97,-9999,7.0,Calm,Calm,-,N/A,,Mostly Cloudy,0,2012-12-13 01:15:00
8:35 PM,33.8,32.9,96,-9999,5.0,Calm,Calm,-,N/A,,Clear,0,2012-12-13 01:35:00
8:55 PM,32.0,31.8,99,-9999,7.0,Calm,Calm,-,N/A,,Scattered Clouds,0,2012-12-13 01:55:00
9:15 PM,32.0,31.1,96,-9999,4.0,Calm,Calm,-,N/A,,Clear,0,2012-12-13 02:15:00
9:35 PM,31.3,30.6,97,-9999,4.0,Calm,Calm,-,N/A,,Scattered Clouds,0,2012-12-13 02:35:00
9:55 PM,31.5,30.6,96,-9999,5.0,Calm,Calm,-,N/A,,Clear,0,2012-12-13 02:55:00
10:35 PM,31.5,30.6,96,-9999,4.0,Calm,Calm,-,N/A,,Clear,0,2012-12-13 03:35:00
10:55 PM,31.5,30.6,96,-9999,2.5,Calm,Calm,-,N/A,,Mostly Cloudy,0,2012-12-13 03:55:00
11:15 PM,31.5,30.4,96,-9999,5.0,Calm,Calm,-,N/A,,Overcast,0,2012-12-13 04:15:00
11:35 PM,31.5,30.2,95,-9999,5.0,Calm,Calm,-,N/A,,Scattered Clouds,0,2012-12-13 04:35:00
11:55 PM,31.6,30.7,96,-9999,4.0,Calm,Calm,-,N/A,,Clear,0,2012-12-13 04:55:00